SV1BYK-4 Weather Reports


Display with metric or nautical units.
time (UTC)temp
F
wind
direction
speed
MPH
gust
MPH
rain 1hr
in
rain 24hr
in
rain mn
in
humidity
%
barometer
mb
20200531031421 59 360 0.0 1.0 0.00 0.00 0.00 80 1002.7
20200531030948 59 315 0.0 2.0 0.00 0.00 0.00 80 1002.7
20200531030448 59 315 0.0 2.0 0.00 0.00 0.00 80 1002.7
20200531025949 59 360 0.0 2.0 0.00 0.00 0.00 80 1002.7
20200531025448 59 360 0.0 3.0 0.00 0.00 0.00 80 1002.7
20200531024947 58 360 0.0 3.0 0.00 0.00 0.00 81 1002.7
20200531024449 58 360 2.0 3.0 0.00 0.00 0.00 81 1002.6
20200531023948 58 360 1.0 3.0 0.00 0.00 0.00 81 1002.6
20200531023448 58 360 0.0 3.0 0.00 0.00 0.00 81 1002.7
20200531022947 58 360 1.0 3.0 0.00 0.00 0.00 81 1003.0
20200531022449 58 360 0.0 1.0 0.00 0.00 0.00 81 1002.7
20200531021948 58 225 0.0 3.0 0.00 0.00 0.00 81 1002.7
20200531021449 58 360 0.0 3.0 0.00 0.00 0.00 81 1002.9
20200531021010 58 360 1.0 3.0 0.00 0.00 0.00 81 1002.7
20200531020510 58 360 1.0 3.0 0.00 0.00 0.00 81 1002.6
20200531020010 58 360 1.0 3.0 0.00 0.00 0.00 81 1002.7
20200531015510 58 360 1.0 3.0 0.00 0.00 0.00 81 1002.7
20200531015010 59 360 0.0 2.0 0.00 0.00 0.00 80 1002.7
20200531014510 59 315 0.0 2.0 0.00 0.00 0.00 80 1002.7
20200531014009 59 360 1.0 2.0 0.00 0.00 0.00 80 1002.9
20200531013509 59 360 0.0 0.0 0.00 0.00 0.00 80 1002.7
20200531013009 59 270 0.0 0.0 0.00 0.00 0.00 79 1002.7
20200531012510 59 270 0.0 0.0 0.00 0.00 0.00 79 1002.9
20200531012010 59 270 0.0 0.0 0.00 0.00 0.00 79 1002.7
20200531011509 59 270 0.0 0.0 0.00 0.00 0.00 79 1002.9
20200531010941 59 315 0.0 0.0 0.00 0.00 0.00 79 1003.1
20200531010442 59 360 0.0 0.0 0.00 0.00 0.00 79 1002.7
20200531005942 59 360 0.0 0.0 0.00 0.00 0.00 79 1002.9
20200531005442 59 315 0.0 0.0 0.00 0.00 0.00 78 1003.1
20200531004947 59 315 0.0 1.0 0.00 0.00 0.00 78 1002.6
20200531004447 59 315 0.0 3.0 0.00 0.00 0.00 78 1002.7
20200531003947 59 360 0.0 4.0 0.00 0.00 0.00 79 1003.0
20200531003447 59 360 1.0 4.0 0.00 0.00 0.00 79 1002.7
20200531002946 59 45 3.0 4.0 0.00 0.00 0.00 79 1002.7
20200531002446 59 270 1.0 3.0 0.00 0.00 0.00 78 1002.7
20200531001946 59 360 1.0 3.0 0.00 0.00 0.00 78 1003.0
20200531001447 59 360 0.0 3.0 0.00 0.00 0.00 77 1002.5
20200531000946 59 360 0.0 2.0 0.00 0.00 0.00 76 1002.7
20200531000446 60 360 0.0 1.0 0.00 0.00 0.00 76 1002.7
20200530235947 60 360 0.0 1.0 0.00 0.00 0.00 76 1002.9
20200530235446 60 360 0.0 1.0 0.00 0.00 0.00 75 1003.0
20200530234946 60 360 0.0 1.0 0.00 0.00 0.00 75 1003.0
20200530234447 60 360 0.0 1.0 0.00 0.00 0.00 75 1003.1
20200530233947 60 360 0.0 0.0 0.00 0.00 0.00 76 1003.2
20200530233446 60 315 0.0 0.0 0.00 0.00 0.00 76 1003.1
20200530232947 60 360 0.0 0.0 0.00 0.00 0.00 76 1003.2
20200530232447 60 225 0.0 0.0 0.00 0.00 0.00 76 1003.2
20200530231947 60 225 0.0 0.0 0.00 0.00 0.00 76 1003.2
20200530231448 60 90 0.0 0.0 0.00 0.00 0.00 76 1003.2
20200530230724 60 360 0.0 3.0 0.00 0.00 0.00 76 1003.2
20200530230224 60 315 0.0 3.0 0.00 0.00 0.00 75 1003.2
20200530225725 60 360 0.0 3.0 0.00 0.00 0.00 75 1003.5
20200530225224 61 360 1.0 3.0 0.00 0.00 0.00 74 1003.7
20200530224724 61 360 1.0 3.0 0.00 0.00 0.00 74 1003.2
20200530224225 61 360 1.0 2.0 0.00 0.00 0.00 73 1003.6
20200530223724 61 360 0.0 1.0 0.00 0.00 0.00 72 1003.4
20200530223224 61 360 0.0 0.0 0.00 0.00 0.00 72 1003.6
20200530222725 61 360 0.0 0.0 0.00 0.00 0.00 72 1003.5
20200530222224 61 360 0.0 0.0 0.00 0.00 0.00 72 1003.2
20200530221725 61 360 0.0 1.0 0.00 0.00 0.00 72 1003.5
20200530221224 61 360 0.0 3.0 0.00 0.00 0.00 72 1003.4
20200530220723 61 360 0.0 3.0 0.00 0.00 0.00 72 1003.6
20200530220224 62 360 1.0 3.0 0.00 0.00 0.00 72 1003.4
20200530215724 62 360 1.0 3.0 0.00 0.00 0.00 71 1003.4
20200530215225 62 360 0.0 3.0 0.00 0.00 0.00 70 1003.7
20200530214724 62 360 0.0 0.0 0.00 0.00 0.00 69 1003.6
20200530214224 62 360 0.0 0.0 0.00 0.00 0.00 68 1003.6
20200530213725 62 360 0.0 0.0 0.00 0.00 0.00 68 1003.7
20200530213225 62 315 0.0 0.0 0.00 0.00 0.00 67 1003.6
20200530212724 62 360 0.0 0.0 0.00 0.00 0.00 66 1003.7
20200530212223 62 360 0.0 0.0 0.00 0.00 0.00 65 1003.7
20200530211648 63 360 0.0 0.0 0.00 0.00 0.00 65 1003.7
20200530211148 63 360 0.0 0.0 0.00 0.00 0.00 64 1003.7
20200530210648 64 360 0.0 0.0 0.00 0.00 0.00 64 1003.7
20200530210148 64 360 0.0 0.0 0.00 0.00 0.00 63 1003.7
20200530205438 64 360 0.0 0.0 0.00 0.00 0.00 63 1003.7
20200530204938 64 360 0.0 0.0 0.00 0.00 0.00 62 1003.7
20200530204438 64 360 0.0 0.0 0.00 0.00 0.00 62 1003.7
20200530203939 65 360 0.0 0.0 0.00 0.00 0.00 61 1003.7
20200530203440 65 360 0.0 0.0 0.00 0.00 0.00 61 1003.6
20200530202940 65 360 0.0 0.0 0.00 0.00 0.00 61 1003.7
20200530202441 65 45 0.0 1.0 0.00 0.00 0.00 61 1003.5
20200530201941 65 90 0.0 1.0 0.00 0.00 0.00 60 1003.6
20200530201440 65 90 0.0 1.0 0.00 0.00 0.00 60 1003.7
20200530200941 65 90 0.0 1.0 0.00 0.00 0.00 60 1003.7
20200530200441 66 90 0.0 1.0 0.00 0.00 0.00 60 1003.9
20200530195940 66 90 0.0 1.0 0.00 0.00 0.00 60 1004.0
20200530195440 66 90 0.0 1.0 0.00 0.00 0.00 58 1004.1
20200530194950 66 45 0.0 0.0 0.00 0.00 0.00 58 1004.1
20200530194450 66 360 0.0 1.0 0.00 0.00 0.00 58 1003.9
20200530193950 66 315 0.0 1.0 0.00 0.00 0.00 58 1003.9
20200530193450 66 90 0.0 0.0 0.00 0.00 0.00 57 1003.9
20200530192950 66 90 0.0 0.0 0.00 0.00 0.00 57 1004.0
20200530192450 66 90 0.0 2.0 0.00 0.00 0.00 57 1003.7
20200530191950 66 90 0.0 2.0 0.00 0.00 0.00 58 1003.7
20200530191451 66 90 0.0 1.0 0.00 0.00 0.00 57 1003.7
20200530190942 66 90 0.0 0.0 0.00 0.00 0.00 56 1004.1
20200530190442 66 90 0.0 0.0 0.00 0.00 0.00 56 1003.9
20200530185941 66 90 0.0 2.0 0.00 0.00 0.00 56 1003.7
20200530185441 66 90 0.0 3.0 0.00 0.00 0.00 55 1003.7
20200530184953 66 135 1.0 3.0 0.00 0.00 0.00 56 1003.7
20200530184452 66 315 0.0 2.0 0.00 0.00 0.00 55 1003.5
20200530183953 66 315 0.0 2.0 0.00 0.00 0.00 55 1003.7
20200530183453 66 90 0.0 2.0 0.00 0.00 0.00 55 1003.6
20200530182952 66 225 0.0 3.0 0.00 0.00 0.00 54 1003.7
20200530182453 66 270 0.0 3.0 0.00 0.00 0.00 54 1003.6
20200530181953 66 360 0.0 2.0 0.00 0.00 0.00 54 1003.5
20200530181452 66 360 0.0 3.0 0.00 0.00 0.00 53 1003.5
20200530180949 66 135 0.0 3.0 0.00 0.00 0.00 54 1003.6
20200530180448 66 360 1.0 3.0 0.00 0.00 0.00 54 1003.5
20200530175949 66 225 0.0 1.0 0.00 0.00 0.00 53 1003.5
20200530175449 66 360 0.0 2.0 0.00 0.00 0.00 53 1003.5
20200530174948 66 90 0.0 3.0 0.00 0.00 0.00 53 1003.5
20200530174449 66 90 0.0 3.0 0.00 0.00 0.00 52 1003.5
20200530173948 66 90 1.0 3.0 0.00 0.00 0.00 51 1003.4
20200530173448 66 135 0.0 4.0 0.00 0.00 0.00 50 1003.5
20200530172949 66 90 0.0 4.0 0.00 0.00 0.00 48 1003.6
20200530172449 67 315 1.0 6.0 0.00 0.00 0.00 51 1003.5
20200530171949 67 135 0.0 6.0 0.00 0.00 0.00 51 1003.5
20200530171448 67 135 3.0 5.0 0.00 0.00 0.00 50 1003.5
20200530170938 67 90 2.0 4.0 0.00 0.00 0.00 50 1003.2
20200530170438 68 90 1.0 5.0 0.00 0.00 0.00 47 1003.2
20200530165939 68 360 1.0 5.0 0.00 0.00 0.00 48 1003.2
20200530165438 68 315 2.0 5.0 0.00 0.00 0.00 49 1003.2
20200530164940 68 270 2.0 5.0 0.00 0.00 0.00 49 1003.2
20200530164439 68 45 2.0 7.0 0.00 0.00 0.00 49 1003.2
20200530163940 68 292 0.0 7.0 0.00 0.00 0.00 49 1003.2